Location: Cutler
(25.6150°N, 80.3110°W)
Time: 18:35:08
(UTC-04:00)

Vanguard 1 - Pass Details

Date: 27 January 2018
Orbit: 650 x 3833 km, 34.3° (Epoch: 21 May)

Event Time Altitude Azimuth Distance (km) Brightness Sun altitude
Rises 19:43:45 0° 223° (SW) 3,123 13.5 -23.1°
Reaches altitude 10° 19:46:21 10° 213° (SSW) 2,082 12.3 -23.6°
Enters shadow 19:49:48 33° 166° (SSE) 1,089 10.2 -24.4°
Maximum altitude 19:50:25 34° 147° (SSE) 1,059 - -24.5°
Drops below altitude 10° 19:54:45 10° 81° (E) 2,221 - -25.5°
Sets 19:57:37 0° 72° (ENE) 3,369 - -26.1°
